Air Force Academy, CO

7:21 PM MST on December 17, 2017 (GMT -0700)
Usaf Academy

Weather History for KAFF - April, 2013

Change the Weather History Date:

Saturday, April 6, 2013

  Actual Average Record
Temperature  
Mean Temperature 45 °F -  
Max Temperature 61 °F 51 °F 71 °F (2015)
Min Temperature 30 °F 27 °F 13 °F (2009)
Degree Days  
Heating Degree Days 20    
Moisture  
Dew Point 23 °F    
Average Humidity 36    
Maximum Humidity 68    
Minimum Humidity 21    
Precipitation  
Precipitation 0.00 in - - ()
Sea Level Pressure  
Sea Level Pressure 29.83 in    
Wind  
Wind Speed 13 mph (South)    
Max Wind Speed 28 mph    
Max Gust Speed 43 mph    
Visibility 10 miles    
Events      
Averages and records for this station are not official NWS values.
T = Trace of Precipitation, MM = Missing Value Source: NWS Daily Summary

Daily Weather History Graph

Daily Weather History Graph

Search for Another Location

Airport or City:

Trip Planner

Search our weather history database for the weather conditions in past years. The results will help you decide how hot, cold, wet, or windy it might be!

Date:

Astronomy

Apr. 06, 2013 Rise Set
Actual Time 6:35 AM MDT 7:28 PM MDT
Civil Twilight 6:08 AM MDT 7:55 PM MDT
Nautical Twilight 5:36 AM MDT 8:27 PM MDT
Astronomical Twilight 5:03 AM MDT 9:00 PM MDT
Moon 4:18 AM MDT (4/6) 4:01 PM MDT (4/6)
Length of Visible Light 13h 46m
Length of Day
12h 52m
Waning Crescent, 14% of the Moon is Illuminated
Apr 6
Waning Crescent
Apr 10
New
Apr 18
First Quarter
Apr 25
Full
May 2
Last Quarter

Hourly Weather History & Observations

Time (MDT) Temp. Windchill Dew Point Humidity Pressure Visibility Wind Dir Wind Speed Gust Speed Precip Events Conditions
12:58 AM 49.5 °F - 28.4 °F 44% 29.72 in 10.0 mi WNW 16.1 mph - N/A   Partly Cloudy
1:58 AM 43.0 °F 38.8 °F 28.0 °F 56% 29.76 in 10.0 mi North 6.9 mph - N/A   Clear
2:58 AM 43.5 °F 36.4 °F 25.9 °F 50% 29.75 in 10.0 mi NNE 15.0 mph - N/A   Clear
3:11 AM 44.6 °F 38.1 °F 23.0 °F 43% 29.92 in 10.0 mi NNW 13.8 mph 24.2 mph N/A   Clear
3:58 AM 37.8 °F 31.8 °F 23.7 °F 57% 29.78 in 10.0 mi NNE 8.1 mph - N/A   Clear
4:58 AM 38.5 °F 34.1 °F 22.5 °F 53% 29.80 in 10.0 mi NW 5.8 mph - N/A   Clear
5:58 AM 34.3 °F 27.7 °F 21.6 °F 60% 29.86 in 10.0 mi North 8.1 mph - N/A   Clear
6:58 AM 30.7 °F 22.0 °F 21.4 °F 68% 29.88 in 10.0 mi North 10.4 mph - N/A   Clear
7:58 AM 34.7 °F 26.9 °F 22.6 °F 61% 29.88 in 10.0 mi North 10.4 mph - N/A   Clear
8:58 AM 42.6 °F 36.8 °F 23.0 °F 46% 29.86 in 10.0 mi North 10.4 mph - N/A   Partly Cloudy
9:58 AM 51.3 °F - 18.1 °F 27% 29.82 in 10.0 mi Variable 2.3 mph - N/A   Clear
10:58 AM 52.5 °F - 16.5 °F 24% 29.85 in 10.0 mi SSE 8.1 mph - N/A   Scattered Clouds
11:58 AM 55.2 °F - 18.9 °F 24% 29.83 in 10.0 mi South 12.7 mph 17.3 mph N/A   Partly Cloudy
12:58 PM 58.8 °F - 20.3 °F 23% 29.77 in 10.0 mi South 17.3 mph 23.0 mph N/A   Scattered Clouds
1:05 PM 59.0 °F - 21.2 °F 23% 29.94 in 10.0 mi SSE 17.3 mph 23.0 mph N/A   Scattered Clouds
1:29 PM 60.8 °F - 21.2 °F 22% 29.93 in 10.0 mi SE 16.1 mph 23.0 mph N/A   Scattered Clouds
1:58 PM 57.9 °F - 20.7 °F 24% 29.81 in 10.0 mi South 8.1 mph 18.4 mph N/A   Scattered Clouds
2:30 PM 59.0 °F - 21.2 °F 23% 29.92 in 10.0 mi South 15.0 mph 24.2 mph N/A   Scattered Clouds
2:58 PM 60.1 °F - 19.9 °F 21% 29.77 in 10.0 mi South 15.0 mph 21.9 mph N/A   Scattered Clouds
3:58 PM 59.2 °F - 20.7 °F 23% 29.77 in 10.0 mi SE 15.0 mph - N/A   Scattered Clouds
4:58 PM 59.2 °F - 19.6 °F 22% 29.73 in 10.0 mi SSE 20.7 mph 25.3 mph N/A   Partly Cloudy
5:58 PM 57.6 °F - 21.4 °F 25% 29.80 in 10.0 mi SSE 16.1 mph 29.9 mph N/A   Clear
6:34 PM 57.2 °F - 23.0 °F 27% 29.88 in 10.0 mi South 27.6 mph 42.6 mph N/A   Partly Cloudy
6:38 PM 57.2 °F - 23.0 °F 27% 29.87 in 10.0 mi SSE 15.0 mph 42.6 mph N/A   Partly Cloudy
6:41 PM 57.2 °F - 23.0 °F 27% 29.87 in 10.0 mi SE 18.4 mph 42.6 mph N/A   Partly Cloudy
6:58 PM 56.8 °F - 22.6 °F 27% 29.81 in 10.0 mi SSE 16.1 mph - N/A   Clear
7:58 PM 55.0 °F - 23.9 °F 30% 29.82 in 10.0 mi SSW 17.3 mph 25.3 mph N/A   Clear
8:02 PM 55.4 °F - 21.2 °F 26% 29.91 in 10.0 mi SSW 15.0 mph - N/A   Clear
8:04 PM 55.4 °F - 21.2 °F 26% 29.91 in 10.0 mi WSW 16.1 mph 23.0 mph N/A   Clear
8:58 PM 52.7 °F - 25.5 °F 35% 29.84 in 10.0 mi South 10.4 mph - N/A   Partly Cloudy
9:58 PM 50.7 °F - 29.1 °F 43% 29.82 in 10.0 mi West 4.6 mph - N/A   Partly Cloudy
10:58 PM 45.7 °F - 29.7 °F 54% 29.81 in 10.0 mi SW 2.3 mph - N/A   Clear
11:58 PM 44.8 °F 40.4 °F 31.1 °F 59% 29.81 in 10.0 mi SSE 8.1 mph - N/A   Clear